Location: Puketoi
(40.5833°S, 176.0167°E)
Time: 15:06:51
(UTC+00:00)

SAR-Lupe-2 - Pass Details

Date: 08 February 2023
Orbit: 481 x 482 km, 98.1° (Epoch: 05 September)

Event Time Altitude Azimuth Distance (km) Brightness Sun altitude
Exits shadow 15:08:52 66° 142° (SE) 539 3.9 -23.4°
Drops below altitude 10° 15:12:13 10° 188° (S) 1,695 6.8 -23.0°
Sets 15:14:19 0° 190° (S) 2,585 7.8 -22.7°
